Printer-friendly version
Follow the MPC on Twitter Follow the MPC on Facebook The MPC blog
Minor Planet Center

MPEC 2010-L63 : 2010 LG61

The following Minor Planet Electronic Circular may be linked-to from your own Web pages, but must not otherwise be redistributed electronically.

A form allowing access to any MPEC is at the bottom of this page.


Read MPEC 2010-L62 Read MPEC 2010-L64


M.P.E.C. 2010-L63                                Issued 2010 June 13, 14:51 UT

     The Minor Planet Electronic Circulars contain information on unusual
         minor planets and routine data on comets.  They are published
   on behalf of Commission 20 of the International Astronomical Union by the
          Minor Planet Center, Smithsonian Astrophysical Observatory,
                          Cambridge, MA 02138, U.S.A.

             Prepared using the Tamkin Foundation Computer Network

                              MPC@CFA.HARVARD.EDU
       URL http://www.minorplanetcenter.org/iau/mpc.html  ISSN 1523-6714

                                   2010 LG61

Observations:
     K10L61G* S2010 06 02.69239 21 52 10.84 +29 43 22.4          21   R EL063C51
     K10L61G  s2010 06 02.69239 1 + 5726.0817 - 1810.5020 + 3408.8023   EL063C51
     K10L61G  S2010 06 02.75848 21 51 55.48 +29 47 31.7                 EL063C51
     K10L61G  s2010 06 02.75848 1 + 5709.9143 - 1791.3816 + 3445.4790   EL063C51
     K10L61G  S2010 06 02.82470 21 51 40.19 +29 51 44.2                 EL063C51
     K10L61G  s2010 06 02.82470 1 + 5729.1894 - 1796.8327 + 3410.4338   EL063C51
     K10L61G  S2010 06 02.89078 21 51 24.94 +29 55 57.0                 EL063C51
     K10L61G  s2010 06 02.89078 1 + 5712.7730 - 1777.8614 + 3447.7798   EL063C51
     K10L61G  S2010 06 02.95687 21 51 09.62 +30 00 06.8                 EL063C51
     K10L61G  s2010 06 02.95687 1 + 5696.2034 - 1758.6524 + 3484.9723   EL063C51
     K10L61G  S2010 06 03.08918 21 50 38.62 +30 08 33.6                 EL063C51
     K10L61G  s2010 06 03.08918 1 + 5698.7305 - 1744.5142 + 3488.2875   EL063C51
     K10L61G  S2010 06 03.22148 21 50 07.70 +30 16 57.8                 EL063C51
     K10L61G  s2010 06 03.22148 1 + 5701.2793 - 1730.5719 + 3491.0979   EL063C51

Observer details:
C51 WISE.  Measurers A. Mainzer, E. Wright, J. Bauer, T. Grav, J. Dailey, J.
    Masiero, R. Cutri, R. McMillan, R. Walker.
    (http://wise.ssl.berkeley.edu/mission_sci.html)

Orbital elements:
2010 LG61                                                Earth MOID = 0.0514 AU
Epoch 2010 May 24.0 TT = JDT 2455340.5                  MPC
M 131.26111              (2000.0)            P               Q
n   1.28825946     Peri.  240.42492     -0.15788239     -0.98542149
a   0.8365023      Node   218.82124     +0.93735431     -0.12937513
e   0.2479860      Incl.    5.80306     +0.31054799     -0.11048331
P   0.77           H   23.4           G   0.15
From 7 observations 2010 June 2-3.  E-assumed.  Completely indeterminate.

Ephemeris:
2010 LG61                a,e,i = 0.84, 0.25, 6                   q = 0.6291
Date    TT    R. A. (2000) Decl.     Delta      r     Elong.  Phase     V
2010 06 13    21 03.12   +40 38.6    0.0930   1.033    98.4    76.5    21.0
2010 06 23    19 50.69   +49 17.6    0.0922   1.042   103.6    71.5    20.8
2010 07 03    18 18.58   +52 56.4    0.0961   1.044   103.8    71.1    20.9
2010 07 13    16 54.47   +51 01.6    0.104    1.039    99.6    74.7    21.2
2010 07 23    15 56.36   +46 08.8    0.113    1.027    92.7    81.0    21.6
2010 08 02    15 17.77   +40 41.8    0.123    1.009    83.9    89.1    22.0

Timothy B. Spahr             (C) Copyright 2010 MPC           M.P.E.C. 2010-L63

Read MPEC 2010-L62 Read MPEC 2010-L64


MPEC number:

Enter an MPEC number in one of the following forms:

  • 1997-B01 (the full form)
  • J97B01 (the packed version of the full form)
  • B01 (the abbreviated form)

Valid HTML 4.01!